Regional Weather Roundup
Issued by NWS

Home | Current Version | Previous Version | Graphics & Text | Print | Product List | Glossary On
Versions: 1 2 3 4 5 6 7 8 9 10 11 12 13 14 15 16 17 18 19 20 21 22 23 24 25 26 27 28 29 30 31 32 33 34 35 36 37 38 39 40 41 42 43 44 45 46 47 48 49 50
000
ASUS43 KTOP 191808
RWRKS

WEATHER ROUNDUP FOR KANSAS
NATIONAL WEATHER SERVICE GOODLAND KS
1200 PM CST FRI DEC 19 2014

NOTE:  "FAIR" INDICATES FEW OR NO CLOUDS BELOW 12,000 FEET WITH NO
SIGNIFICANT WEATHER AND/OR OBSTRUCTIONS TO VISIBILITY.

KSZ001>006-013>018-027>032-041>047-191900-
NORTHWEST KANSAS

CITY           SKY/WX    TMP DP  RH WIND       PRES   REMARKS
GOODLAND       MOSUNNY   44  28  53 W8        30.12F
6HR MIN TEMP:  24; 6HR MAX TEMP:  44;

HAYS           CLOUDY    41  28  60 S9        30.17F
HILL CITY      SUNNY     37  29  72 SE3       30.15F
6HR MIN TEMP:  28; 6HR MAX TEMP:  37;

RUSSELL        CLOUDY    36  33  89 S12       30.17F WCI  28
6HR MIN TEMP:  31; 6HR MAX TEMP:  36;

$$

KSZ061>065-074>080-084>089-191900-
SOUTHWEST KANSAS

CITY           SKY/WX    TMP DP  RH WIND       PRES   REMARKS
DODGE CITY     CLOUDY    39  33  79 SW10      30.18F WCI  32
6HR MIN TEMP:  33; 6HR MAX TEMP:  39;

ELKHART          N/A    N/A N/A N/A MISG        N/A
GARDEN CITY    CLOUDY    38  33  82 SW10      30.16F WCI  31
6HR MIN TEMP:  29; 6HR MAX TEMP:  38;

GREAT BEND     CLOUDY    34  28  80 S12       30.21F WCI  25
LIBERAL        CLOUDY    39  34  81 CALM      30.20S
PRATT          CLOUDY    34  32  93 SW9       30.21F FOG
$$

KSZ066>073-081>083-090>101-191900-
SOUTHEAST KANSAS

CITY           SKY/WX    TMP DP  RH WIND       PRES   REMARKS
CHANUTE        CLOUDY    35  33  92 NW5       30.26F FOG
6HR MIN TEMP:  33; 6HR MAX TEMP:  35;

COFFEYVILLE    CLOUDY    38  34  85 CALM      30.26F
6HR MIN TEMP:  35; 6HR MAX TEMP:  38;

HUTCHINSON     CLOUDY    34  31  88 SW7       30.23F FOG
6HR MIN TEMP:  31; 6HR MAX TEMP:  34;

MEDICINE LODGE   N/A     35  33  92 S3        30.22F
NEWTON         CLOUDY    30  25  80 S5        30.24F
PARSONS        CLOUDY    38  35  89 N3        30.27F
6HR MIN TEMP:  35; 6HR MAX TEMP:  38;

WICHITA INTL   CLOUDY    34  30  85 CALM      30.24F
6HR MIN TEMP:  31; 6HR MAX TEMP:  34;

WICHITA JABRA  CLOUDY    32  29  88 SE5       30.23F
6HR MIN TEMP:  29; 6HR MAX TEMP:  33;

WICHITA MCCONL CLOUDY    33  30  88 E5        30.23F
WINFIELD       CLOUDY    35  32  88 E3        30.26F
6HR MIN TEMP:  32; 6HR MAX TEMP:  35;

$$

KSZ007>012-019>026-033>040-048>060-102>105-191900-
NORTHEAST KANSAS

CITY           SKY/WX    TMP DP  RH WIND       PRES   REMARKS
CONCORDIA      CLOUDY    31  29  92 S13       30.20F WCI  21
6HR MIN TEMP:  29; 6HR MAX TEMP:  32;

EMPORIA        CLOUDY    31  28  89 CALM      30.25F
6HR MIN TEMP:  27; 6HR MAX TEMP:  32;

LAWRENCE       CLOUDY    32  29  88 S5        30.28F FOG
6HR MIN TEMP:  31; 6HR MAX TEMP:  32;

MANHATTAN      CLOUDY    31  31 100 SW6       30.26F FOG
6HR MIN TEMP:  30; 6HR MAX TEMP:  31;

MARYSVILLE     CLOUDY    32  30  93 S9        30.23F FOG
OLATHE IND     CLOUDY    32  29  88 CALM      30.26F
6HR MIN TEMP:  30; 6HR MAX TEMP:  32; 6HR PCP: TRACE;

OLATHE EXE     CLOUDY    32  29  88 CALM      30.25F
6HR MIN TEMP:  30; 6HR MAX TEMP:  32;

SALINA         CLOUDY    32  28  85 S9        30.24F
6HR MIN TEMP:  30; 6HR MAX TEMP:  32;

TOPEKA BILLARD CLOUDY    32  29  88 SW5       30.28F
6HR MIN TEMP:  30; 6HR MAX TEMP:  32;

TOPEKA FORBES  LGT SNOW  32  29  88 SW3       30.26F FOG
6HR MIN TEMP:  30; 6HR MAX TEMP:  32; 6HR PCP: TRACE;

$$



USA.gov is the U.S. government's official web portal to all federal, state and local government web resources and services.